Regional Weather Roundup
Issued by NWS

Home | Current Version | Previous Version | Text Only | Print | Product List | Glossary Off
Versions: 1 2 3 4 5 6 7 8 9 10 11 12 13 14 15 16 17 18 19 20 21 22 23 24 25 26 27 28 29 30 31 32 33 34 35 36 37 38 39 40 41 42 43 44 45 46 47 48 49 50

000
ASUS45 KBOI 250810
RWRID

IDAHO REGIONAL WEATHER ROUNDUP
NATIONAL WEATHER SERVICE BOISE ID
200 AM MDT SUN SEP 25 2016

NOTE: "FAIR" INDICATES FEW OR NO CLOUDS BELOW 12000 FEET
WITH NO SIGNIFICANT WEATHER AND/OR OBSTRUCTIONS TO VISIBILITY

IDZ012-014-250900-
SOUTHWEST IDAHO


CITY           SKY/WX    TMP DP  RH WIND       PRES   REMARKS
BOISE          CLEAR     51  35  54 SE3       30.39R
CALDWELL       CLEAR     47  38  71 CALM      30.39R
MOUNTAIN HOME  CLEAR     49  33  54 W10       30.37S
$$

IDZ016-017-250900-
SOUTHCENTRAL IDAHO


CITY           SKY/WX    TMP DP  RH WIND       PRES   REMARKS
BURLEY         CLEAR     43  35  73 SW7       30.39S
JEROME         CLEAR     46  36  68 S8        30.39S
TWIN FALLS     CLEAR     50  35  56 S14       30.39S
$$

IDZ019>023-250900-
SOUTHEAST IDAHO


CITY           SKY/WX    TMP DP  RH WIND       PRES   REMARKS
IDAHO FALLS    CLEAR     44  37  76 SW8       30.42R
POCATELLO      CLEAR     46  33  60 S5        30.42S
REXBURG        CLEAR     46  36  68 S9        30.41R
$$

IDZ006-010-011-018-031-032-250900-
CENTRAL IDAHO MOUNTAINS


CITY           SKY/WX    TMP DP  RH WIND       PRES   REMARKS
MCCALL         CLEAR     37  31  78 CALM      30.45R
HAILEY         CLEAR     43  36  75 NW9G16    30.43R
STANLEY          N/A     31  28  89 CALM      30.50R
SALMON         CLEAR     36  32  87 CALM      30.45R
CHALLIS        CLEAR     40  31  70 CALM      30.46R
$$

IDZ002-004-006-007-026-250900-
NORTHERN IDAHO


CITY           SKY/WX    TMP DP  RH WIND       PRES   REMARKS
LEWISTON       CLEAR     50  36  58 SE5       30.39R
LOWELL           N/A     46  43  89 CALM      30.47R
COEUR D`ALENE  NOT AVBL
MULLAN PASS    PTCLDY    39  32  76 CALM      30.44R
$$



USA.gov is the U.S. government's official web portal to all federal, state and local government web resources and services.